Location: Newark
(21.1200°N, 73.4000°E)
Time: 10:59:01
(UTC+00:00)

Vanguard 1 Rocket - Pass Details

Date: 20 January 2020
Orbit: 650 x 4226 km, 34.3° (Epoch: 19 February)

Event Time Altitude Azimuth Distance (km) Brightness Sun altitude
Rises 16:23:18 0° 271° (W) 8,458 13.0 -49.4°
Reaches altitude 10° 16:37:54 10° 242° (WSW) 6,941 12.3 -52.8°
Maximum altitude 16:42:33 11° 230° (SW) 6,567 12.0 -53.9°
Drops below altitude 10° 16:46:52 10° 218° (SW) 6,313 11.9 -54.9°
Sets 16:57:33 0° 185° (S) 6,272 11.8 -57.3°
